YAOGAN-30 AD (49026 NORAD) Tracking and Keplerian Element Data

This shows tracking and keplerian element data for the satellite.

Feedback or suggestion? Click here.




ElementValue
Catalog49026
NameYAOGAN-30 AD
Epoch Orbit1029
Epoch Day269.04410439
Epoch Year2021
RAAN225.2952
Inclination34.9954
Eccentricity0.0006873
Argument of Perigee348.9974
Mean Anonmoly11.0585
Mean Motion14.89980608
Decay Rate3.31E-06
L11 49026U 21065A 21269.04410439 .00000331 00000-0 36496-4 0 9999
L22 49026 34.9954 225.2952 0006873 348.9974 11.0585 14.89980608 10297

Live tracking and technical data element details for YAOGAN-30 AD (NORAD 49026). YAOGAN-30 AD can be tracked NOW for your location showing map with azimuth and elevation plus other details from your city location.

Track the satellite on the map from your city or location and see movement details for azimuth, elevation, latitude, longitude, range, height, and movement on the map or in text.







IsCatalogInMostPopularTable: catalog: 49026, numindb: 16
Update: records affected: 1



GetName: 49026 YAOGAN-30 AD

Hit Count: updated at: Sun, 26 Sep 2021 16:35:20 GMT